User: anonymous
Location: Platte
(43.3870°N, 98.8440°W)
Time: 14:34:47
(UTC-05:00)
Language:

Landsat 7 - Orbit

View from above orbital plane
View from above orbital plane
View from above satellite
View from above satellite

Ground track
Ground track

The orbit data is extracted from the following two-line orbital elements,

1 25682U 99020A   14203.24678033 -.00000059  00000-0 -29962-5 0  4440
2 25682 098.2133 272.3929 0000992 059.8522 300.2803 14.57102672812097
Epoch (UTC): 22 July 2014 05:55:21
Eccentricity: 0.0000992
inclination: 98.2133°
perigee height: 702 km
apogee height: 703 km
right ascension of ascending node: 272.3929°
argument of perigee: 59.8522°
revolutions per day: 14.57102672
mean anomaly at epoch: 300.2803°
orbit number at epoch: 81209

The dashed part of the orbit path shows where the satellite is in the earth's shadow,  

DLR